カタログに戻る

SDA_1676

運用中軍事PO
NORAD 65986·PAYLOAD·🇺🇸 United States

打ち上げ Oct 15, 2025 から Vandenberg Space Force Base

Loading…

次のパス (今後24時間)

TLE

最新Source: Space-Track

元期: Sep 14, 2026, 08:12 UTC

1 65986U 25230N   26257.34220264  .00000059  00000-0  47225-4 0  9999
2 65986  81.3011 130.7542 0000866  40.3735 319.7483 13.78091202 46046

AllMySatでSDA_1676をリアルタイム追跡

Download on the App Store